Theta_e
305 305 306 305 305 304 304 304 305 305 306 301 298 300 295 294 292 303 307 309 308 300 291 290 290 284 283 288 287 287 286 285 287 287 287 287 286 285 284 285 284 283 283 284 285 286 283 284 284 284 285 284 287 286 288 290 291 293 286 287 284 290 281 279 278 278 281 283 284 284 283 286 287 286 282 284 284 282 280 273 274 279 271 272 270 267 279
304 304 305 305 305 305 304 304 304 304 304 299 299 296 293 294 295 298 304 308 306 296 286 286 288 283 285 286 287 288 288 286 286 287 287 286 288 286 285 286 288 284 282 284 285 287 281 283 284 283 283 286 286 285 288 292 290 291 288 290 290 284 283 284 273 273 277 279 284 283 285 286 283 282 282 283 280 279 276 274 271 273 275 276 275 271 280
303 303 304 304 305 305 304 303 304 304 304 302 298 293 294 293 295 296 299 304 301 292 291 290 288 285 285 284 285 286 286 288 287 286 287 286 284 286 286 286 285 284 284 285 285 288 287 280 285 285 282 286 285 286 288 292 291 290 290 295 293 286 282 282 277 276 274 273 273 278 282 284 281 280 281 282 284 280 280 278 273 274 271 276 272 276 283
302 303 303 304 304 305 304 303 303 304 304 304 298 295 293 288 284 291 293 297 296 293 293 289 288 286 284 283 284 286 285 288 289 289 289 288 288 287 286 286 285 284 285 284 284 286 286 284 281 285 283 283 285 286 285 288 290 291 293 291 291 280 281 285 284 282 280 282 283 284 285 283 282 282 283 283 285 284 283 278 274 279 276 276 281 283 284
302 302 302 303 303 304 304 304 303 304 303 302 297 294 292 290 285 285 284 291 292 290 291 287 288 285 286 283 285 284 285 287 289 292 288 290 289 288 288 287 286 286 285 284 284 285 286 283 282 284 284 281 284 285 285 287 287 292 291 291 286 278 282 283 284 285 285 285 282 282 288 284 285 283 283 284 284 283 283 282 282 283 277 275 281 283 282
301 301 302 302 303 303 304 304 304 303 303 302 298 290 290 285 287 290 292 287 284 285 286 288 285 288 289 284 287 285 286 286 285 289 290 290 291 288 289 289 288 288 286 285 281 284 284 283 282 283 281 284 285 286 287 286 289 289 288 289 287 283 283 284 282 284 285 281 281 283 285 286 285 285 284 282 284 282 282 284 287 283 282 281 286 283 282
300 300 301 302 302 303 303 304 304 303 302 300 295 290 289 288 286 287 291 287 287 288 287 289 287 287 288 285 287 285 286 286 288 287 288 289 290 289 284 287 288 287 286 286 283 284 282 282 282 280 281 281 281 281 285 287 287 287 286 286 283 286 280 282 283 283 284 281 281 282 285 283 283 285 284 285 284 283 285 286 287 286 284 286 285 282 285
299 299 300 301 301 302 302 303 303 303 302 296 291 289 288 285 285 284 288 287 287 289 289 289 288 285 289 286 286 287 287 286 287 289 288 284 287 291 288 286 288 287 287 286 284 285 287 286 285 282 285 281 280 283 283 283 285 287 285 286 285 287 281 285 281 279 281 281 280 281 282 283 281 282 284 285 285 285 286 287 287 286 286 286 285 283 283
299 299 299 300 301 301 302 302 303 302 302 289 288 289 290 289 287 289 286 285 286 288 288 287 287 285 286 285 285 287 288 287 290 288 291 288 287 289 289 288 288 287 287 287 287 288 287 286 288 287 289 287 287 287 285 288 285 285 285 284 286 286 280 280 280 278 277 279 280 280 279 280 280 280 281 283 283 282 284 284 286 284 283 285 284 283 285
299 299 300 299 299 300 301 301 302 302 301 289 287 286 289 289 289 288 287 283 288 286 288 288 287 284 287 287 286 286 287 289 290 287 291 292 292 292 290 290 290 287 288 287 290 291 290 289 289 291 290 290 288 288 287 289 288 286 287 284 285 284 283 280 279 277 277 277 280 278 278 277 275 279 282 284 285 286 286 286 285 286 288 284 282 284 290
299 299 299 299 300 300 300 301 301 302 298 289 284 283 286 288 287 286 285 281 281 286 287 286 286 288 289 289 288 289 289 290 292 287 286 292 292 293 293 292 290 286 289 293 296 296 295 295 294 293 293 292 291 290 290 288 288 287 287 281 280 282 284 280 281 279 273 274 277 278 277 272 276 287 288 286 285 285 283 284 286 287 287 287 290 290 292
298 299 299 299 299 300 300 300 301 301 301 294 289 286 287 287 286 285 282 279 281 284 286 285 286 286 287 289 290 289 289 289 290 293 289 290 292 294 293 293 292 286 293 297 297 297 297 297 296 295 293 291 291 291 290 289 289 288 287 286 283 283 283 278 277 278 276 273 277 276 273 276 286 285 287 288 288 288 287 288 288 289 289 289 288 288 289
298 298 298 299 299 299 300 300 300 300 301 297 294 289 287 286 287 284 281 277 274 281 283 285 284 285 286 289 289 290 291 292 292 293 291 291 289 292 293 292 292 292 298 297 298 295 290 286 287 287 287 287 288 288 289 288 289 290 288 287 286 283 283 279 278 277 276 273 274 273 274 281 282 283 285 286 287 287 286 285 287 287 287 289 288 290 292
298 298 298 298 299 299 299 300 300 300 301 300 295 293 288 287 284 282 279 276 278 279 282 284 284 284 286 288 289 288 289 290 290 292 290 290 291 291 291 294 295 299 299 299 294 292 286 286 284 285 285 286 286 285 287 289 288 289 289 289 287 286 284 282 280 280 278 276 277 277 280 281 282 285 284 286 283 283 283 281 285 289 289 289 289 291 291
297 297 298 298 298 299 299 299 299 300 300 301 297 295 293 291 287 284 284 278 276 278 281 280 282 284 286 285 288 287 287 287 288 287 288 289 290 290 291 291 290 297 297 295 288 287 286 285 283 281 283 282 278 281 287 285 288 290 291 289 288 289 287 284 284 280 282 276 273 276 276 276 281 286 285 287 287 289 289 286 284 287 289 290 290 289 291
297 297 297 298 298 298 299 299 299 299 300 300 298 296 295 294 291 288 283 277 276 273 277 283 282 284 284 284 287 288 287 286 286 286 286 287 286 289 291 290 290 293 294 291 288 286 285 284 282 281 279 281 284 282 276 284 284 286 289 289 289 289 289 286 285 283 282 279 277 276 275 278 285 285 285 286 284 289 286 284 282 286 284 288 289 289 290
297 297 297 297 298 298 298 298 299 299 299 299 295 296 294 297 293 290 284 278 277 275 279 283 283 283 282 282 285 286 286 286 287 285 284 285 286 287 289 289 290 292 291 289 286 285 284 282 283 283 283 284 282 279 285 283 281 282 286 288 287 287 287 286 284 283 283 281 279 277 279 280 284 284 285 284 283 290 288 278 278 288 281 281 285 289 289
297 297 297 297 297 297 298 298 298 299 299 299 297 294 294 297 296 294 290 284 279 276 280 282 284 283 281 281 282 284 285 285 285 285 285 286 286 286 287 288 287 290 289 287 287 285 284 283 281 281 280 285 285 287 278 283 282 281 282 284 283 284 285 286 282 284 284 284 282 282 282 283 282 284 286 284 287 290 283 279 285 284 280 282 282 283 283
297 297 297 297 297 297 297 298 298 298 298 299 297 294 294 297 297 295 291 286 284 280 283 284 285 283 284 284 282 283 285 287 287 285 283 284 285 287 287 287 290 285 288 285 285 284 284 283 285 281 281 282 284 281 285 282 278 282 285 283 283 285 285 284 286 283 283 284 282 283 284 284 286 282 284 285 289 282 281 286 282 281 281 281 282 282 281
297 297 296 297 297 297 297 297 298 298 298 298 296 290 294 297 297 296 291 285 285 284 285 284 285 284 284 284 283 282 283 284 284 283 283 284 286 286 286 283 286 287 286 286 282 284 282 281 283 284 281 281 283 284 278 279 283 282 284 286 284 284 283 280 282 284 284 283 281 280 277 287 287 286 286 288 285 285 287 284 283 281 281 281 281 282 283
297 297 297 296 297 297 297 297 297 298 298 298 298 291 290 295 297 297 296 291 285 283 285 290 287 287 285 284 285 286 285 285 283 281 282 283 287 288 280 282 286 286 284 286 281 283 282 279 278 279 282 284 285 283 279 281 279 284 286 286 285 289 283 283 284 286 279 281 278 280 286 287 288 291 287 288 289 287 285 286 283 284 282 282 282 281 282
296 296 297 297 296 297 297 297 297 297 298 298 298 291 289 292 296 297 297 295 288 284 286 290 290 289 289 287 287 288 288 287 287 287 284 282 285 285 281 280 285 284 284 284 280 280 280 280 278 277 278 277 277 280 282 281 276 282 282 285 281 288 285 286 282 286 283 281 284 286 283 286 284 283 285 285 286 287 287 287 286 284 283 281 283 282 282
297 295 297 297 297 297 297 297 297 297 297 297 296 290 288 291 292 297 295 289 291 291 290 289 290 291 292 291 289 288 286 287 288 287 287 285 284 283 280 281 282 283 279 283 284 282 280 278 278 280 276 278 280 279 275 277 277 280 283 286 284 283 285 284 285 283 282 286 285 284 283 283 281 282 282 282 284 285 286 287 286 284 284 284 284 283 283
296 296 296 297 297 296 296 296 297 297 296 297 297 289 288 289 292 292 291 290 286 284 286 288 286 283 285 286 288 288 289 287 289 288 287 289 282 280 282 282 284 280 279 280 281 281 277 277 281 276 278 279 279 276 279 277 277 277 278 280 283 283 283 285 282 282 285 282 282 282 283 282 282 283 282 281 282 283 284 285 287 286 284 283 284 284 284
295 296 296 297 297 297 296 297 296 296 297 297 296 293 291 287 287 293 288 282 282 282 277 282 284 289 290 291 291 289 289 289 289 288 289 289 287 284 282 285 286 287 286 284 281 283 278 278 277 274 277 279 283 279 279 277 277 278 278 278 278 283 282 284 279 282 283 280 281 282 283 283 283 282 282 283 282 281 281 282 283 284 283 283 282 281 281
295 295 296 296 296 296 296 296 296 296 297 297 295 287 288 287 290 291 288 288 285 284 278 277 281 288 288 289 287 289 289 290 290 288 288 287 287 288 286 285 284 284 283 283 284 283 276 274 269 270 277 279 282 276 271 279 276 276 279 281 282 281 285 279 281 281 279 280 282 283 284 282 281 281 282 282 282 282 281 282 283 283 282 281 279 279 280
295 295 296 297 295 297 296 295 296 296 297 296 294 287 288 286 291 290 286 285 282 278 280 276 281 283 286 286 288 287 287 289 288 288 287 288 287 286 287 286 284 283 283 281 281 278 272 272 277 278 275 276 278 273 272 277 276 277 275 278 280 282 281 279 281 276 277 282 282 284 283 280 285 284 285 282 282 282 281 281 281 281 280 279 278 277 277
294 295 295 297 296 296 296 296 296 297 296 296 292 287 289 288 289 292 290 288 283 276 277 278 278 280 285 282 286 289 288 288 288 287 287 286 285 287 286 285 284 284 282 282 277 277 277 279 278 275 269 268 277 276 271 272 275 271 272 279 281 284 283 281 280 281 281 284 284 287 288 285 284 288 285 282 282 281 280 281 281 281 281 280 277 276 275
294 294 295 295 296 296 296 296 295 295 296 294 284 284 281 284 287 292 291 289 285 280 275 278 282 280 274 281 286 285 288 289 288 287 286 284 284 285 286 285 284 283 282 281 279 277 274 278 280 276 276 280 278 272 274 272 272 277 281 281 280 280 283 286 285 283 281 282 286 287 286 286 282 283 284 281 280 280 279 280 280 280 279 278 278 278 276
294 294 294 295 296 295 296 296 295 295 294 286 282 279 278 282 287 288 292 290 284 280 277 276 273 277 284 282 279 283 284 286 287 287 286 284 283 284 284 284 283 286 283 281 281 280 277 276 275 276 277 283 280 274 274 269 273 278 281 279 282 282 280 284 284 286 286 281 283 286 284 278 279 279 281 280 279 280 279 278 277 276 275 275 274 274 274
294 294 295 296 297 295 296 296 295 295 294 285 284 277 277 274 281 289 293 288 285 284 278 281 276 280 275 279 283 284 285 285 283 284 284 285 285 284 283 283 283 287 284 280 280 281 280 274 275 278 279 282 282 275 272 270 270 269 278 281 282 283 282 282 281 279 278 277 275 274 275 276 277 278 277 276 277 277 275 274 273 273 273 272 270 270 270
294 294 295 296 296 297 296 296 296 295 286 285 283 280 280 281 285 289 293 289 286 283 280 275 276 274 270 278 279 285 286 286 285 283 283 285 282 284 281 285 281 285 286 284 282 281 280 277 280 279 282 285 286 271 272 271 273 278 280 279 281 283 283 280 277 276 277 278 280 279 276 274 277 281 281 279 276 274 273 272 271 271 271 269 268 267 266
294 294 295 296 295 294 295 295 295 292 284 288 293 295 294 294 294 294 294 288 286 282 283 276 270 275 272 270 272 274 283 284 283 284 281 285 281 284 280 284 282 282 289 286 273 276 279 282 277 279 281 285 279 274 279 279 280 284 283 279 280 281 282 278 277 277 277 279 278 284 278 277 278 277 272 276 273 272 271 270 269 268 267 266 264 264 263
294 294 295 295 296 297 295 294 295 294 291 283 277 282 284 295 294 294 290 287 283 283 274 272 273 273 270 275 270 275 282 280 279 283 278 285 283 284 280 284 283 282 283 282 282 280 276 278 279 278 282 276 271 272 275 280 284 284 285 280 279 280 276 275 275 276 277 275 267 268 274 278 274 271 271 271 268 268 268 268 267 266 265 265 264 263 263
294 293 295 296 295 296 295 294 289 284 278 279 279 281 288 295 294 294 291 285 278 274 272 271 272 269 270 264 263 269 277 278 274 280 277 281 287 282 283 279 281 279 280 286 281 282 281 279 282 280 277 279 276 275 275 280 282 284 282 275 277 276 273 274 274 275 271 267 268 269 270 272 273 271 270 269 267 266 266 265 266 266 265 265 264 262 262
294 295 295 295 294 293 290 290 285 283 281 280 278 289 294 294 294 291 289 283 278 275 275 273 274 267 270 268 266 266 279 274 277 276 274 278 279 282 283 280 275 279 285 282 278 282 279 284 282 276 283 279 276 279 280 281 281 282 278 276 276 278 279 280 279 271 266 266 267 268 269 271 275 273 270 268 266 265 266 265 264 265 267 266 263 262 262
291 293 292 292 290 285 280 280 284 282 281 287 290 294 294 290 285 285 282 277 277 278 272 273 269 269 273 265 264 265 277 271 280 275 274 276 274 282 281 277 275 282 278 274 277 279 282 288 281 277 278 276 279 283 283 283 282 282 280 279 277 279 280 280 276 270 267 264 264 264 265 267 266 267 268 266 265 265 264 265 265 265 267 267 264 262 261
291 290 285 282 280 278 277 280 278 284 293 292 291 283 279 283 277 280 279 272 275 279 267 267 267 270 270 269 268 274 277 271 279 274 272 273 277 273 277 278 277 280 269 275 278 284 280 281 278 277 278 282 284 284 283 283 284 284 284 281 277 277 278 274 271 271 269 266 265 262 261 262 264 265 266 265 264 263 266 268 267 266 265 265 264 262 259
286 281 278 278 277 275 275 276 287 292 289 287 283 277 274 277 277 271 270 274 275 269 273 273 269 270 271 271 268 276 275 272 271 269 270 275 276 269 277 270 278 279 272 275 275 286 275 273 277 277 276 279 280 281 282 282 283 283 283 280 278 277 274 271 274 276 276 278 278 274 272 272 269 267 265 266 265 264 264 263 263 261 260 261 259 258 257
280 278 277 275 273 276 282 287 292 288 284 278 276 273 269 272 272 267 275 269 267 270 275 269 276 273 274 272 272 271 276 271 268 266 269 269 277 268 272 274 273 274 268 271 273 284 275 272 276 275 274 279 280 283 282 281 281 282 280 276 276 275 273 273 274 278 280 281 280 278 275 277 276 274 268 267 266 264 261 260 260 258 257 257 257 256 256
277 276 275 274 274 275 279 283 281 276 277 272 270 269 268 264 264 267 270 268 269 267 268 271 272 268 273 271 273 271 274 276 269 269 269 269 273 274 269 267 273 269 267 271 274 274 269 272 274 273 275 281 281 281 281 278 279 279 276 271 273 274 273 273 274 275 273 269 267 272 273 270 270 271 270 269 267 266 265 262 259 257 255 256 256 255 255
279 277 276 280 279 278 277 275 272 271 269 271 270 266 268 266 264 259 263 265 267 268 264 266 268 271 270 275 273 277 270 265 269 271 270 267 275 271 268 270 263 263 265 273 274 265 270 270 272 272 275 279 280 281 281 279 278 276 272 265 267 270 271 272 272 267 266 272 270 270 271 269 268 269 269 267 266 265 262 259 256 255 255 255 255 254 254
288 284 281 273 273 274 274 270 270 270 267 265 265 263 263 258 261 265 264 265 259 262 265 265 265 277 271 270 268 267 272 276 272 269 267 265 272 267 266 266 263 257 264 267 266 266 267 264 268 272 278 278 280 280 281 281 281 279 270 263 262 264 268 270 271 269 261 263 263 263 263 264 262 260 263 264 261 258 255 256 256 255 254 253 253 253 253
284 278 271 268 272 270 271 265 271 267 264 266 266 262 260 259 262 261 261 263 262 265 267 271 269 272 269 270 272 269 269 273 275 263 262 262 266 262 266 262 264 268 268 261 261 262 266 266 270 273 276 277 279 279 279 280 276 263 258 257 257 259 262 262 260 258 255 254 255 255 256 256 255 255 258 260 261 260 256 255 254 253 253 253 253 252 252
276 273 272 269 267 270 269 263 266 264 263 262 268 263 264 261 264 262 266 265 267 269 271 272 272 271 270 267 266 268 275 267 269 268 264 268 262 263 264 262 265 259 259 262 262 261 261 263 267 264 268 272 275 276 273 271 266 269 265 256 256 257 259 261 260 259 256 255 255 255 255 255 255 255 255 255 255 257 256 254 253 253 253 253 252 252 252
274 271 271 267 265 266 264 262 260 260 262 265 263 264 265 265 264 264 266 259 266 266 270 271 272 273 269 264 272 271 269 265 267 268 268 263 263 264 265 264 262 260 261 261 263 265 265 267 269 271 273 274 276 268 261 259 258 258 261 261 258 257 258 259 258 257 256 255 254 255 255 255 255 254 253 252 253 253 253 253 254 253 253 252 252 252 252
272 271 268 267 265 263 262 260 260 261 260 261 263 267 268 266 264 262 256 251 267 263 267 269 272 271 271 265 265 264 261 266 267 268 267 261 262 265 265 262 263 262 262 262 262 263 261 264 266 269 271 269 261 257 259 258 256 258 262 259 256 256 256 256 255 255 253 253 253 253 254 253 253 252 252 252 251 252 252 252 252 253 253 253 253 252 251
269 269 266 261 261 261 261 264 255 250 249 252 251 248 249 251 257 261 256 254 256 258 268 270 269 267 265 263 264 268 264 261 266 265 266 266 263 254 257 262 259 262 261 263 266 264 266 265 269 273 270 265 266 264 259 258 257 257 259 258 256 256 255 255 254 253 252 253 253 253 252 252 252 252 253 252 251 251 251 251 251 252 252 252 251 251 251
269 266 267 263 258 255 254 252 256 263 255 247 248 249 251 256 258 256 253 254 257 261 261 266 267 267 263 265 264 265 266 266 266 266 265 260 259 259 261 259 261 259 260 262 264 264 269 271 262 254 252 254 258 258 259 257 257 257 258 258 257 256 255 255 254 252 253 253 253 252 252 252 253 253 252 252 251 250 250 250 250 251 251 251 250 250 250
266 262 257 255 257 258 254 251 257 258 252 250 252 254 251 254 252 249 252 255 255 257 264 269 272 268 265 267 264 265 262 262 264 264 263 264 261 258 258 254 258 262 262 261 258 261 262 254 249 253 252 252 254 254 254 253 254 254 253 253 253 254 254 253 251 252 252 252 252 252 252 252 253 252 252 252 251 250 249 250 250 250 250 251 251 251 250
260 259 254 250 258 260 258 260 261 257 254 257 255 253 252 255 253 254 252 251 254 262 267 268 269 265 265 265 265 264 265 265 262 259 261 262 261 258 259 262 262 262 266 266 264 259 251 248 249 250 250 252 253 251 251 253 254 254 253 252 253 253 252 252 251 251 251 251 251 252 252 252 253 253 252 251 250 250 250 250 250 250 249 249 250 250 249
261 260 256 252 249 247 249 251 251 251 251 249 248 248 252 251 252 250 252 252 257 266 266 265 264 264 264 264 268 266 264 262 260 260 258 258 257 260 256 264 268 265 265 263 254 247 248 247 247 248 249 251 252 251 253 253 253 253 253 252 252 251 251 251 251 251 251 251 251 251 251 251 251 251 251 251 251 251 250 249 248 248 248 248 248 247 246
Wind_Speed
11 10 10 10 12 12 13 14 16 17 12 4 1 1 4 2 2 2 8 11 15 12 6 3 6 5 2 1 2 2 2 3 3 4 1 1 1 2 2 5 5 2 3 2 5 11 6 11 11 6 7 3 4 4 8 10 11 8 3 5 3 5 4 5 2 2 3 2 1 2 0 1 1 4 2 5 9 7 7 3 6 8 2 2 1 2 9
11 10 10 9 10 11 11 12 14 14 12 2 1 5 2 1 2 4 2 6 8 13 12 14 15 3 2 2 1 2 2 2 4 2 2 2 1 3 3 1 0 4 2 5 9 8 4 4 5 3 1 3 0 7 10 17 8 11 10 13 10 5 4 9 3 3 2 3 1 1 1 1 5 4 4 2 4 6 3 5 1 2 8 8 7 7 10
10 10 10 9 9 9 9 10 11 12 12 3 1 3 1 1 1 2 1 1 6 14 2 8 12 5 6 4 5 2 2 1 2 4 5 0 2 3 1 2 4 2 2 4 3 8 7 3 7 3 1 3 1 2 9 11 9 2 2 1 8 4 5 9 8 10 9 7 6 10 13 14 3 1 3 5 9 9 5 4 1 4 3 9 5 9 4
9 9 9 9 9 8 8 8 9 10 11 7 5 2 2 1 4 1 2 2 2 4 1 3 8 8 6 6 3 3 4 0 2 4 2 1 1 1 3 1 3 3 4 4 4 8 2 2 3 8 4 2 1 1 4 9 4 3 3 7 10 3 1 7 11 14 15 15 11 1 11 7 7 6 10 8 7 7 4 6 5 11 5 8 11 12 9
8 9 9 9 8 8 7 7 7 8 9 6 3 3 1 1 1 2 4 3 3 2 3 4 5 8 4 6 2 5 3 3 1 1 1 2 2 1 1 3 5 2 6 6 6 7 8 1 4 6 7 1 1 2 4 3 3 1 3 8 6 3 4 8 10 13 14 9 3 5 10 10 10 11 10 10 10 10 10 10 13 6 11 8 11 15 13
7 8 9 9 8 8 7 6 6 7 7 5 2 3 1 0 1 1 1 1 5 6 4 4 5 3 5 1 2 5 5 3 4 2 1 2 0 3 1 1 1 11 13 7 5 5 4 4 4 2 1 4 0 3 1 3 2 2 2 2 4 6 9 8 7 12 10 2 5 6 6 8 10 13 12 12 13 11 14 15 17 9 10 17 17 6 10
6 7 8 9 9 8 7 6 5 5 6 3 2 4 2 1 0 1 3 1 1 1 4 9 6 8 7 2 3 5 7 7 3 4 2 1 1 1 4 6 7 6 4 7 6 8 6 6 4 5 4 6 4 3 2 1 1 2 2 3 2 4 5 6 7 12 9 2 5 3 8 2 3 10 14 16 16 17 19 18 18 15 15 17 11 8 16
6 6 7 7 9 8 7 6 4 3 5 4 4 2 3 2 2 1 2 3 3 4 6 7 7 6 4 7 6 6 10 10 2 0 5 4 4 1 2 4 4 4 5 4 6 8 8 8 11 5 7 0 0 4 5 5 1 1 4 4 2 5 5 7 4 4 7 5 3 2 4 6 5 4 9 12 15 17 19 18 18 15 14 14 9 6 15
8 8 7 6 6 8 8 6 4 3 4 4 3 1 2 1 0 1 5 2 1 4 5 6 9 7 2 6 4 3 8 11 9 2 0 4 5 4 7 6 5 1 3 1 0 2 2 3 7 12 12 13 9 8 5 8 8 5 3 1 2 4 4 2 4 6 5 2 9 5 3 2 2 3 7 10 13 14 15 16 10 7 10 12 9 12 17
7 8 8 7 7 5 7 6 3 4 7 4 1 2 1 2 0 1 2 3 2 4 3 3 5 6 7 6 4 4 7 2 6 1 3 2 3 5 9 8 7 1 3 3 3 3 4 4 3 8 1 3 5 2 2 9 11 9 9 1 6 6 6 5 5 6 6 1 6 7 5 3 3 8 13 21 20 17 7 5 2 10 14 12 10 18 19
9 9 8 8 7 6 6 6 4 2 2 2 2 0 1 1 2 1 2 4 1 3 5 5 7 1 6 4 4 1 4 7 9 13 3 3 2 3 9 9 7 3 7 4 3 6 8 7 5 4 8 8 7 4 6 6 2 6 11 3 0 3 6 5 3 7 2 1 7 5 8 8 12 13 18 16 15 14 8 9 15 14 11 10 15 16 14
10 9 9 9 7 8 7 5 4 1 2 1 3 2 3 1 4 3 2 5 2 1 5 4 8 1 8 8 6 7 7 8 6 4 2 1 1 4 6 5 6 3 2 6 10 8 7 5 7 9 9 8 7 6 7 4 3 2 2 7 7 8 5 5 3 3 3 2 5 6 9 12 9 1 6 14 15 14 19 19 18 16 14 13 12 11 13
11 10 10 10 8 8 9 7 5 1 3 1 1 1 1 1 2 2 4 3 2 4 5 1 1 2 2 9 8 7 9 8 6 4 1 3 1 2 3 5 10 3 9 12 9 6 5 4 5 4 3 3 4 4 3 1 0 1 1 3 8 8 8 4 1 4 5 3 4 6 9 6 2 1 2 3 8 9 10 13 12 7 8 14 16 19 20
12 12 11 11 11 10 9 9 7 4 4 4 2 1 2 1 2 2 2 3 2 1 0 2 1 2 3 8 9 5 4 4 4 6 6 2 4 5 2 0 0 8 8 10 7 8 4 1 2 1 1 2 2 1 3 2 3 3 3 2 2 9 5 4 5 3 7 6 9 7 3 6 3 4 3 10 9 8 11 11 14 16 15 15 17 20 18
14 12 12 12 12 11 10 10 8 7 5 5 2 1 1 0 2 1 0 3 2 1 3 7 4 4 4 2 5 7 5 5 7 4 1 2 2 0 1 1 2 4 4 6 1 2 4 4 5 5 3 6 7 7 3 2 1 5 5 3 3 6 11 5 8 4 5 5 3 0 2 9 9 8 1 2 6 12 13 10 7 4 10 15 16 17 17
14 14 13 13 12 12 11 11 11 9 8 6 3 2 3 2 2 4 3 4 5 2 6 6 3 5 4 2 3 9 8 7 6 4 3 2 1 2 0 0 2 1 3 3 3 3 4 8 10 9 8 8 5 2 3 3 2 4 3 5 4 1 1 0 8 3 6 5 6 6 7 9 9 6 4 4 4 11 7 5 12 5 4 10 14 17 15
15 15 15 14 14 14 13 13 12 11 11 8 4 3 3 3 3 3 3 2 2 6 2 3 5 4 5 2 2 1 3 6 6 5 5 6 4 2 0 1 1 2 3 7 3 4 5 3 2 7 4 3 6 5 5 5 4 2 3 4 7 5 4 3 5 6 5 6 7 9 4 4 2 2 1 3 4 9 10 7 8 8 2 1 4 12 14
16 16 17 16 15 15 14 14 14 13 12 11 5 3 2 3 4 2 1 2 4 3 2 4 4 4 4 5 3 1 3 4 4 2 3 2 4 2 3 1 2 1 1 4 6 5 6 6 8 5 6 1 1 6 10 7 8 8 10 12 8 7 4 9 14 12 12 12 7 3 5 3 3 4 1 4 7 11 11 16 5 2 1 1 4 3 2
16 17 17 18 17 16 16 15 15 14 14 12 3 2 2 3 4 3 2 2 3 4 3 3 1 2 1 2 2 3 2 3 5 6 4 3 3 3 4 2 2 3 3 5 2 6 8 6 2 3 6 3 1 6 2 8 6 3 9 10 6 8 6 3 8 12 13 12 14 12 4 5 8 1 6 4 7 8 12 3 1 5 3 0 2 5 2
17 17 18 18 18 18 17 17 16 16 15 15 6 3 1 4 5 7 5 3 1 3 1 4 3 5 2 3 3 2 1 2 1 5 5 5 1 5 4 1 2 3 2 3 5 2 3 6 7 2 3 5 5 3 2 2 1 7 5 9 10 11 9 8 10 5 1 2 7 3 9 5 8 9 2 1 4 4 4 6 1 1 4 6 3 4 5
17 18 18 19 19 19 19 18 18 18 16 17 10 4 2 1 5 5 3 3 3 3 5 2 1 5 3 2 4 4 5 5 4 3 4 3 5 5 5 5 6 4 4 5 6 3 3 2 3 3 2 4 4 3 4 3 1 6 4 8 6 5 7 4 5 5 8 11 10 8 4 5 7 11 9 7 7 4 7 9 5 3 3 5 6 2 3
20 19 19 19 19 20 19 19 18 18 18 18 11 5 5 2 4 5 3 3 2 3 0 0 1 1 2 2 2 2 1 2 4 2 6 2 0 2 2 3 4 4 3 3 2 1 1 1 2 2 2 1 4 4 1 6 4 3 2 2 3 6 8 4 7 4 7 4 5 1 1 3 1 1 1 1 2 4 7 5 8 9 5 3 6 8 6
19 21 20 20 20 20 21 20 19 19 20 20 11 4 6 4 2 3 6 4 2 1 1 2 1 2 2 3 2 3 3 1 2 2 3 4 0 0 2 3 2 0 0 1 4 4 3 5 4 3 1 1 6 4 1 2 2 3 7 4 1 3 1 0 3 3 0 1 2 2 1 1 2 1 1 1 1 0 4 10 9 4 7 9 11 10 11
20 21 23 22 20 21 21 21 20 21 21 21 12 6 4 4 5 5 3 2 2 3 2 3 2 6 7 9 4 2 1 1 1 2 1 1 3 1 2 1 0 2 0 0 2 4 4 2 3 2 2 4 4 2 6 5 5 3 1 1 1 2 1 1 2 1 6 6 3 3 2 1 1 1 2 2 0 1 2 4 7 9 8 6 6 13 13
21 21 22 23 21 21 22 21 22 22 20 21 13 8 5 2 3 7 7 6 3 3 4 2 9 6 2 4 3 3 4 2 2 1 1 1 4 4 3 1 2 0 0 0 1 6 2 3 0 1 4 5 7 6 2 4 6 3 5 4 1 3 3 1 1 4 7 3 1 1 1 1 3 3 5 4 3 1 3 2 3 7 5 4 5 4 6
21 22 23 26 26 24 23 22 22 21 20 21 11 7 8 7 6 4 3 2 2 2 4 6 3 2 2 2 3 2 4 5 5 4 4 3 2 3 6 2 2 3 4 1 1 2 2 2 2 1 5 5 2 2 1 5 2 0 3 7 6 2 5 4 5 5 1 2 1 1 2 2 3 4 4 1 3 4 4 4 7 7 10 8 5 4 2
22 24 24 24 26 23 24 24 23 23 22 22 9 7 6 3 7 9 7 6 5 3 3 4 2 0 1 4 1 3 2 4 4 5 4 1 3 3 4 4 3 2 3 3 4 3 2 1 2 5 3 4 2 2 2 1 2 3 2 3 1 4 7 2 4 2 3 10 8 9 6 3 6 8 9 6 5 5 6 6 7 7 9 8 10 7 6
24 25 24 25 26 25 24 25 24 23 22 22 9 8 6 7 6 8 6 8 10 4 1 0 2 4 1 2 3 1 2 3 5 6 5 4 4 4 5 5 4 4 2 2 1 1 1 3 5 1 1 1 2 2 1 0 3 2 3 6 6 8 5 6 6 8 9 5 6 13 7 1 4 11 9 9 7 8 10 10 11 8 7 9 13 11 6
25 26 26 27 28 27 27 26 27 25 25 12 8 6 3 1 3 7 7 4 5 2 3 2 1 4 0 4 4 3 1 4 5 5 5 4 5 5 6 6 6 5 2 2 2 3 3 4 3 5 2 5 4 2 3 2 3 9 10 4 3 5 6 10 9 4 2 3 11 12 7 7 3 5 10 10 9 10 8 7 7 10 10 8 7 8 13
26 27 27 29 28 29 28 25 27 25 18 10 6 4 3 2 3 5 6 6 6 4 2 1 1 4 1 3 2 3 2 2 4 4 6 5 5 6 5 5 3 4 3 5 5 6 4 3 1 2 2 0 3 2 3 3 5 8 5 4 9 5 4 4 4 8 6 2 5 8 5 5 3 3 5 8 9 10 11 12 10 9 5 5 7 5 3
28 29 30 31 29 30 27 28 28 26 17 9 7 3 5 4 5 7 9 4 4 6 3 2 3 0 4 3 1 3 5 3 4 5 5 5 6 5 3 4 2 6 6 2 4 6 3 3 2 3 0 3 4 3 5 5 6 4 9 10 11 9 7 7 4 1 5 6 7 7 5 5 5 7 3 4 8 7 5 5 5 5 6 7 6 6 6
29 30 31 29 27 29 31 28 24 20 11 11 11 7 5 4 5 11 13 8 5 4 4 3 4 1 2 1 2 3 5 4 3 1 1 4 3 4 2 6 5 5 6 6 3 2 5 3 5 5 6 6 6 2 3 3 8 13 7 7 6 8 7 6 5 2 4 9 12 9 4 1 4 9 9 12 9 5 7 8 7 8 8 8 7 8 7
28 28 27 30 32 31 30 29 29 14 8 9 8 9 6 9 19 19 13 9 5 2 2 3 4 3 2 6 1 2 4 4 1 4 3 3 3 4 2 3 2 2 5 7 2 5 3 6 3 7 7 6 5 4 7 13 14 14 11 6 8 7 9 4 4 5 10 8 4 10 8 11 13 10 1 9 9 9 11 11 9 8 9 9 9 8 6
24 26 27 29 29 27 26 26 25 17 10 7 5 4 2 14 18 20 12 6 3 2 4 4 3 3 3 2 5 6 3 6 6 8 5 2 3 4 4 5 5 5 4 9 3 3 1 2 7 5 4 3 1 3 10 11 14 17 15 6 7 6 4 5 5 8 8 5 2 2 2 4 6 9 8 10 9 6 7 8 10 11 7 8 7 7 8
21 25 27 28 29 30 30 26 12 5 4 2 2 1 6 16 18 21 15 8 6 1 1 1 1 3 4 3 2 4 1 2 3 5 8 4 6 7 5 4 4 7 4 4 5 8 6 7 5 6 9 6 6 10 6 10 16 18 9 7 6 8 4 3 4 5 4 2 1 2 3 10 14 9 11 11 10 10 12 9 8 11 10 9 9 9 7
19 23 25 26 26 21 13 13 6 6 3 4 4 11 19 15 17 11 10 3 5 4 3 3 4 4 5 6 4 5 2 2 3 1 1 1 1 1 3 4 6 5 3 5 8 8 9 7 6 11 7 10 14 9 13 14 16 15 6 11 13 15 14 16 11 8 4 3 4 3 3 3 9 11 9 9 10 8 9 10 7 5 7 8 10 9 7
10 20 20 20 12 5 3 3 3 3 5 7 12 20 21 13 4 5 6 4 3 1 5 4 3 5 8 6 1 3 4 4 3 1 2 3 3 3 5 4 8 4 3 2 4 11 9 8 10 11 12 16 11 12 14 13 14 14 11 11 14 12 10 8 12 16 9 5 6 3 1 3 4 5 9 10 10 8 8 11 15 15 15 16 13 11 10
18 15 10 6 5 5 3 3 4 7 20 25 18 9 5 3 3 2 1 3 4 2 1 2 2 3 2 4 6 6 6 5 1 6 2 3 3 4 2 4 5 5 7 5 7 5 2 8 7 11 13 12 10 11 10 12 13 15 15 10 11 13 11 9 14 14 11 4 1 1 1 1 4 5 10 11 11 13 16 12 9 6 2 5 8 9 9
9 4 6 3 3 2 4 4 7 20 12 4 5 3 2 0 3 1 1 1 0 1 3 4 5 4 7 6 5 2 6 6 4 2 5 4 4 4 2 2 4 5 5 6 7 9 6 4 5 9 13 10 13 12 10 12 13 13 13 9 12 12 10 12 18 20 19 17 18 19 19 16 16 14 10 10 9 6 3 5 6 6 5 6 9 8 8
3 4 3 4 3 1 2 13 23 11 4 3 1 4 2 0 3 2 2 3 1 2 2 4 5 5 7 10 9 7 2 3 4 3 5 2 0 4 3 2 3 3 6 9 5 7 6 8 7 8 11 11 13 11 12 11 13 13 11 8 10 12 14 17 16 15 20 19 13 16 17 17 18 18 17 15 14 13 9 7 6 7 7 8 8 10 11
0 3 3 3 3 2 2 5 4 5 3 3 2 1 2 1 1 0 2 4 4 3 1 4 3 2 3 3 5 8 3 4 1 3 3 4 4 3 1 4 5 3 4 7 2 2 1 6 9 11 9 9 12 12 12 12 13 12 11 9 10 13 16 16 17 14 9 5 2 7 10 8 6 7 12 17 17 17 15 13 12 10 10 10 12 9 8
2 3 4 5 4 3 3 6 2 4 3 0 3 2 3 2 2 3 1 5 5 2 3 2 4 8 8 11 9 7 5 1 2 1 2 3 2 4 3 2 2 3 2 3 2 2 3 5 7 7 5 9 11 12 14 13 14 12 10 8 8 8 12 14 14 8 7 11 8 9 10 11 9 9 12 13 13 11 11 12 11 10 11 7 7 9 9
13 10 6 5 3 3 1 2 1 2 3 1 2 0 1 2 2 5 2 1 2 3 4 2 1 2 3 2 1 0 5 1 2 1 2 3 1 4 2 3 2 0 4 2 3 2 4 3 4 6 7 10 12 12 14 15 17 13 8 6 6 5 8 12 15 15 6 6 8 9 9 10 8 5 7 12 11 10 5 6 12 12 10 10 10 9 9
5 4 6 2 2 3 2 2 1 4 1 1 4 5 2 1 1 2 2 3 2 3 4 8 6 9 6 3 6 1 1 2 2 2 1 2 2 1 1 2 4 6 3 4 1 3 6 3 7 7 9 10 10 12 13 14 10 6 5 5 4 5 6 5 4 7 4 2 5 4 5 7 7 4 5 8 13 16 12 10 9 11 10 10 9 8 7
4 2 2 2 1 1 3 2 2 3 4 3 3 2 4 7 6 5 8 5 5 9 7 7 7 7 7 3 2 2 2 3 2 4 3 3 1 2 2 4 3 2 2 3 1 2 1 3 5 5 5 6 9 10 9 7 9 13 11 6 5 6 8 11 11 8 7 7 8 7 8 8 9 8 6 6 4 8 16 16 13 13 11 10 9 8 6
3 4 2 3 2 1 1 0 1 0 2 2 4 6 6 7 7 7 5 2 4 2 8 9 8 8 6 2 7 6 3 2 2 3 1 1 3 4 4 0 3 1 1 1 4 8 7 7 7 8 9 11 11 6 2 2 2 4 11 12 15 11 8 8 7 7 8 9 8 8 9 8 9 11 10 6 8 9 8 11 11 12 11 11 10 10 8
3 2 2 1 1 0 1 2 4 4 3 5 6 8 8 6 4 2 2 1 4 1 1 1 4 5 8 3 2 2 1 1 3 3 4 1 3 1 3 3 4 3 4 6 4 3 3 5 6 7 8 8 5 4 6 6 6 7 9 3 7 9 8 9 9 10 8 8 8 8 8 9 9 9 11 12 8 8 9 10 10 9 11 11 10 8 8
3 1 3 3 3 2 4 5 1 1 2 1 0 1 1 1 2 4 0 2 1 0 5 7 4 1 1 2 3 5 3 0 2 3 2 3 2 2 0 1 2 1 2 5 9 5 6 5 7 8 8 4 6 9 9 11 11 12 10 9 10 11 12 13 11 10 11 12 11 11 10 10 11 11 12 14 13 9 8 9 10 9 9 10 9 8 8
3 2 3 3 1 3 1 2 4 7 1 2 2 2 2 4 5 1 2 1 2 3 1 2 2 3 2 1 4 2 3 3 4 5 2 1 3 4 3 3 3 4 4 5 6 7 8 9 6 3 5 4 4 5 5 3 4 7 9 12 14 15 13 12 12 12 11 10 11 12 12 11 11 12 12 13 15 10 7 8 10 9 9 11 11 10 9
4 1 2 5 3 3 1 1 3 5 1 1 1 0 0 1 1 1 0 1 1 0 0 1 2 1 3 3 1 3 2 1 3 1 3 6 4 1 2 2 3 5 3 3 4 7 9 4 1 5 4 3 2 3 4 3 4 4 1 2 3 7 8 11 12 11 10 10 11 12 13 12 11 11 14 14 11 10 10 9 9 10 10 10 10 10 9
3 3 1 2 2 6 7 5 9 6 4 7 6 6 5 5 4 3 2 2 3 3 2 5 4 3 1 1 2 3 4 2 2 4 5 5 1 3 4 6 7 7 7 8 7 2 1 2 1 3 2 3 2 2 3 5 6 6 5 5 6 6 8 8 10 11 10 10 11 12 13 11 9 10 9 10 13 12 12 8 8 9 9 8 6 9 10
2 2 1 1 3 2 2 1 4 1 1 1 3 1 1 2 0 0 0 1 3 7 7 3 3 2 1 4 4 2 2 4 1 2 1 4 3 5 4 9 11 10 8 7 3 3 2 2 2 2 2 2 1 2 3 5 7 7 8 8 9 10 9 8 10 11 11 11 11 11 11 11 12 11 11 13 11 9 12 12 9 9 10 8 7 8 9
Wind_Direction
23 26 28 40 45 40 39 40 29 23 19 47 353 139 85 170 143 29 136 164 167 159 165 90 169 200 237 333 36 27 71 118 202 138 264 90 92 82 94 187 125 276 129 142 157 163 185 173 195 193 210 256 195 211 151 134 161 137 108 64 197 97 103 91 343 321 320 330 332 62 97 140 318 273 113 154 199 184 174 159 177 155 153 91 12 270 254
20 21 24 29 45 46 38 44 40 36 41 110 351 57 73 74 153 99 49 174 187 169 179 172 194 165 330 76 112 337 145 127 127 176 171 139 145 149 151 46 294 159 140 137 168 186 148 240 200 275 186 212 97 155 163 160 169 165 194 173 196 155 248 134 137 35 347 344 351 350 349 66 211 191 193 166 79 81 135 103 69 104 216 162 132 222 270
8 15 19 24 37 50 48 44 48 38 31 36 99 117 244 128 25 31 120 188 176 189 194 179 169 150 162 143 138 151 47 338 158 148 164 119 157 119 186 179 148 96 164 137 122 191 177 162 225 164 159 212 83 249 168 190 176 212 250 70 152 180 164 142 152 170 172 190 185 210 211 206 170 128 118 166 146 137 126 182 77 200 269 152 177 242 236
358 6 12 19 27 37 53 49 50 42 32 27 84 103 48 347 132 255 74 37 42 35 10 99 159 160 155 135 200 125 114 354 323 111 73 156 102 56 125 6 83 104 125 132 156 195 245 130 191 182 217 219 338 239 233 194 193 279 138 148 145 170 163 191 187 189 202 204 206 28 81 73 181 209 159 182 177 166 126 108 120 210 199 171 227 230 250
354 356 3 10 17 25 33 48 49 49 34 38 105 63 76 47 95 166 139 62 9 104 85 122 130 184 176 160 168 165 128 139 71 226 114 211 143 83 53 178 142 220 140 166 183 198 187 10 113 199 174 248 231 341 159 184 323 326 118 165 99 87 181 215 205 217 216 211 155 200 147 167 193 147 180 175 164 174 156 176 212 169 89 253 237 228 245
337 349 350 357 4 13 23 27 48 53 39 19 92 85 29 130 298 41 330 125 180 149 194 137 102 108 154 173 117 165 132 166 148 24 18 95 51 117 342 7 240 172 173 152 164 175 187 156 201 52 355 108 329 74 8 167 310 39 160 192 138 153 196 219 182 231 230 134 161 165 156 177 175 177 165 164 177 168 180 209 220 135 193 225 239 187 230
327 328 345 347 350 359 13 24 41 62 46 65 100 115 280 55 337 213 331 90 342 41 121 127 128 133 160 67 140 164 167 180 171 152 101 37 242 138 172 207 207 190 189 153 168 164 157 241 214 168 165 174 126 104 30 269 60 131 124 160 188 136 234 195 179 218 228 161 148 193 159 151 122 182 178 177 170 186 194 211 216 195 216 229 238 154 229
303 311 310 334 340 344 354 16 14 76 55 62 73 44 135 198 145 308 10 61 69 117 126 138 128 136 173 160 217 167 183 182 133 297 139 162 233 119 162 200 152 166 172 175 163 200 196 188 189 204 137 110 116 193 185 155 38 123 160 170 262 159 256 133 136 201 249 216 159 126 183 152 182 208 188 181 185 193 200 210 219 215 234 242 257 275 277
300 298 301 299 324 334 337 349 17 24 56 36 79 93 62 112 89 141 126 99 164 115 132 139 154 146 162 194 199 167 190 192 174 182 157 169 161 171 193 131 105 93 136 126 153 211 157 164 189 176 170 178 204 153 233 154 155 171 145 161 178 163 243 47 109 181 268 185 171 188 91 83 147 158 176 193 193 203 214 211 212 178 212 234 243 263 256
272 283 284 288 288 315 325 329 351 47 72 112 111 104 221 89 11 95 100 91 170 145 152 123 122 194 196 178 160 169 192 118 141 212 277 219 160 174 142 163 121 86 134 188 197 193 131 137 133 133 71 94 92 61 148 156 159 168 178 145 148 182 143 149 154 179 227 302 162 130 109 75 293 239 208 199 202 205 208 231 239 202 198 208 208 233 244
275 270 268 277 283 281 297 314 324 83 72 126 102 216 239 153 152 58 47 118 316 147 142 186 175 209 124 174 143 124 136 162 173 190 205 166 220 135 148 156 148 154 191 186 170 128 108 105 94 73 75 71 79 75 83 63 88 164 159 126 180 126 149 171 185 173 242 3 119 125 103 207 226 222 211 183 192 195 182 204 217 221 183 210 211 231 248
268 269 268 262 275 282 279 292 301 161 204 140 122 158 209 136 86 84 90 143 197 155 185 184 185 164 170 185 169 173 166 172 195 207 148 102 142 142 150 163 126 198 199 118 109 116 106 71 59 53 54 52 53 42 53 87 49 56 153 150 164 164 164 171 160 160 162 165 118 99 206 230 230 324 134 188 198 180 197 216 216 216 211 228 250 259 262
257 257 261 262 258 267 269 265 273 259 187 106 99 166 224 142 117 118 132 114 191 184 188 175 7 104 181 168 177 189 181 183 174 164 137 129 82 192 181 167 189 184 134 133 127 95 83 92 49 68 48 21 28 31 8 50 14 354 62 138 142 165 158 145 74 125 58 89 165 200 233 230 304 296 194 176 173 193 196 245 251 241 209 211 232 240 243
254 250 248 251 255 249 250 252 254 253 207 162 128 212 148 136 92 81 110 101 245 294 270 42 19 157 129 177 176 167 120 160 182 167 190 199 169 187 255 78 158 146 152 127 112 113 70 60 85 119 279 57 26 337 250 200 203 178 223 231 122 160 114 149 191 195 176 179 200 218 335 352 290 237 193 162 163 157 172 218 245 225 210 197 218 235 244
253 253 250 243 242 250 251 247 248 250 228 187 136 86 131 262 116 122 209 91 172 297 174 192 178 175 142 150 167 149 159 160 139 211 118 27 145 220 135 41 320 153 148 107 69 68 148 127 192 177 183 160 188 213 119 205 270 218 207 153 128 165 176 209 174 229 149 133 180 48 233 239 239 222 130 165 165 170 183 178 264 233 208 201 209 228 236
253 250 248 246 243 238 240 248 244 236 239 192 165 152 208 207 127 85 114 143 121 243 245 198 170 143 157 173 198 171 172 161 171 132 143 178 223 360 340 342 307 157 101 93 122 123 159 186 207 203 209 199 191 116 261 146 213 295 182 143 141 273 65 116 189 195 152 201 208 208 205 232 221 247 189 199 188 151 127 159 244 259 199 200 197 221 233
249 246 244 241 240 237 233 236 241 238 240 203 175 178 217 172 177 144 100 42 114 209 291 185 151 116 96 98 57 28 145 174 158 158 183 200 181 165 228 343 315 149 189 127 155 136 177 174 173 218 235 159 184 196 127 170 146 109 100 123 177 178 191 139 187 215 196 182 210 227 215 243 254 222 242 220 152 124 105 201 250 233 123 282 178 204 223
253 248 244 242 238 237 235 231 229 234 239 225 170 165 203 177 197 152 114 142 146 282 263 204 155 136 171 179 158 192 75 89 71 49 102 137 119 148 183 96 72 38 187 163 160 168 186 188 195 184 205 209 170 151 211 150 189 177 169 177 177 186 187 193 202 203 218 221 246 299 287 274 233 199 181 139 159 140 169 215 230 202 206 242 188 188 177
255 251 246 241 239 237 234 232 229 229 229 228 166 150 241 180 180 163 116 136 166 226 241 237 189 161 204 69 108 167 183 168 152 120 155 102 232 190 137 205 145 154 184 178 196 180 181 202 154 157 177 227 195 195 163 179 198 108 147 156 187 194 187 205 200 213 213 213 223 233 256 230 177 235 174 188 126 198 211 193 73 133 147 6 164 139 163
253 253 248 242 240 238 234 231 227 225 223 221 169 188 151 166 179 181 170 178 159 225 175 194 165 203 222 149 141 112 57 43 96 129 180 163 127 101 70 103 306 105 108 137 185 214 169 191 184 174 182 172 207 144 53 251 49 156 155 187 184 183 177 186 191 184 168 172 212 145 231 233 143 134 113 211 169 233 138 134 92 142 154 133 107 123 157
247 247 248 244 239 235 233 231 226 222 220 220 193 161 245 243 184 189 178 130 141 182 249 235 194 221 177 192 190 165 154 183 164 135 217 167 194 157 167 206 159 143 178 158 190 185 173 223 163 181 217 146 210 84 192 152 230 277 150 180 203 178 185 180 211 177 184 189 200 202 210 125 205 158 186 202 213 158 154 136 120 188 167 144 124 90 148
248 244 243 242 240 236 235 232 229 227 223 220 196 127 209 210 171 179 160 136 160 198 61 110 22 287 250 223 224 193 176 175 202 146 131 152 340 167 175 96 149 151 193 124 68 36 349 172 45 79 162 220 11 181 225 164 193 189 350 112 164 210 198 175 192 166 166 196 212 257 296 151 191 43 260 234 101 141 156 130 144 151 202 179 125 135 135
248 247 240 239 237 234 232 227 226 225 221 218 202 150 194 143 180 160 145 187 200 296 27 303 311 283 281 250 208 195 205 228 112 92 113 108 110 20 127 145 205 153 349 76 180 149 179 119 206 156 64 193 164 193 7 126 185 169 171 235 190 342 200 100 121 249 349 338 140 94 49 312 291 354 299 165 138 45 142 135 134 192 155 170 147 152 145
249 246 244 237 237 236 231 228 225 225 221 218 194 147 182 167 170 137 123 123 153 210 211 225 205 231 218 250 255 260 223 295 221 206 190 121 140 243 354 287 204 43 11 235 179 136 198 124 214 107 192 235 106 159 183 249 227 192 82 330 274 253 180 138 151 259 138 237 163 138 189 136 188 194 2 359 134 184 167 158 147 154 155 160 160 153 159
255 245 239 238 233 233 235 226 221 222 222 220 191 167 146 152 178 160 154 182 182 177 237 197 215 221 171 201 176 206 222 129 95 115 207 162 158 158 195 228 170 153 281 272 135 77 58 129 223 78 188 249 146 230 170 160 269 152 175 247 100 281 182 116 205 160 167 239 49 247 36 218 218 195 169 178 166 69 50 67 84 115 114 113 129 115 121
256 248 239 235 231 227 231 231 223 218 217 222 185 140 174 186 174 152 118 90 77 118 218 242 254 25 160 163 231 199 164 149 180 193 187 188 154 159 148 123 29 35 108 84 39 136 133 61 93 138 172 262 131 186 229 211 177 315 194 216 196 205 116 212 169 164 290 25 157 115 36 326 260 228 248 226 154 137 103 104 116 126 123 117 80 62 97
257 251 239 229 232 226 226 228 222 215 213 215 188 151 153 169 160 167 163 156 141 269 240 260 165 292 227 195 242 80 113 168 190 190 224 161 108 91 119 144 112 76 86 48 27 115 56 100 131 219 164 233 119 184 138 35 136 151 207 260 134 96 190 193 99 95 192 210 196 159 124 228 232 223 209 184 164 143 136 127 123 135 123 124 110 85 54
259 253 241 227 226 223 224 224 220 215 211 210 171 165 155 158 186 187 167 161 178 203 119 45 96 255 67 356 291 157 187 156 169 191 203 194 151 155 164 173 143 120 114 113 322 47 182 179 240 204 95 303 88 264 121 270 65 9 243 233 185 188 190 137 174 182 221 217 147 183 188 149 222 193 177 163 164 152 156 166 157 151 152 148 136 124 94
256 251 242 228 222 218 213 218 221 211 208 183 89 89 23 283 204 185 184 177 153 188 98 199 251 47 86 235 50 35 49 153 167 183 195 184 175 188 187 180 175 152 111 93 138 137 156 220 143 142 171 216 102 265 94 203 191 222 227 185 150 235 175 181 195 183 271 196 177 184 185 192 210 175 163 163 163 161 165 167 165 162 160 158 153 155 147
253 247 238 228 215 214 212 212 215 207 189 118 125 79 140 264 217 201 194 174 146 103 157 161 90 257 246 43 261 212 123 134 165 182 193 186 189 192 190 164 185 159 146 171 173 222 205 201 266 282 275 26 173 206 178 194 215 238 233 170 205 211 208 230 174 175 222 202 176 186 164 73 47 113 143 155 163 164 168 176 173 156 142 136 134 119 120
250 241 232 225 208 208 206 208 208 201 167 142 132 108 174 213 204 178 184 163 144 130 154 204 225 57 27 261 162 183 161 156 175 186 202 192 191 183 187 141 199 173 197 197 199 223 162 246 168 247 163 195 148 165 194 167 238 284 238 192 200 197 201 217 200 160 121 107 83 77 74 96 108 77 58 162 176 170 135 126 113 118 126 115 105 109 108
246 234 226 212 206 201 200 202 207 189 137 159 172 188 176 198 173 150 158 142 112 78 144 106 204 129 238 264 225 211 157 181 152 122 173 146 204 163 181 174 202 197 198 201 206 167 224 178 197 200 175 200 167 142 145 182 223 239 227 199 195 193 191 178 158 161 112 137 112 68 49 156 230 164 191 191 177 139 133 128 120 112 103 93 81 66 67
237 223 218 209 199 195 197 196 198 175 155 167 141 83 123 140 146 152 149 129 82 193 156 134 162 209 161 235 283 338 178 111 127 155 229 179 192 151 182 183 181 206 225 212 221 210 218 196 147 198 221 150 156 192 214 222 231 240 235 174 191 183 200 175 145 153 164 186 163 170 187 186 212 219 10 145 141 142 140 134 131 115 114 114 113 113 104
226 210 200 199 194 188 192 193 192 162 146 128 161 181 214 144 147 141 130 119 120 186 94 128 186 169 220 332 64 272 157 173 182 169 212 169 161 140 185 162 187 197 220 201 209 186 292 83 200 213 142 227 139 140 229 228 233 239 237 191 165 176 155 139 164 171 195 177 44 342 258 155 92 94 109 125 122 106 115 124 135 133 142 142 148 147 144
215 205 195 189 184 186 187 186 172 125 145 154 92 337 133 144 145 151 146 151 130 215 78 303 136 129 192 355 123 270 162 104 222 212 191 202 159 161 191 189 207 206 212 131 224 207 200 207 151 200 215 122 190 221 218 224 230 235 225 109 166 139 109 144 236 205 149 62 27 68 122 134 132 140 154 157 147 151 145 159 165 149 154 180 163 150 158
201 192 183 178 178 172 167 160 151 145 135 181 195 151 144 153 156 157 167 131 125 152 150 211 157 185 171 200 195 261 109 141 216 135 211 148 27 283 167 145 231 221 217 187 203 191 226 141 174 226 190 206 217 198 218 218 228 234 180 176 184 174 186 192 177 152 113 63 68 64 107 163 163 162 149 154 152 156 159 154 170 184 176 166 174 163 151
162 182 166 155 149 88 126 138 144 173 188 132 137 136 128 106 36 49 14 8 337 90 139 176 136 198 181 212 191 275 105 188 168 123 246 164 198 193 156 199 213 191 176 265 208 206 201 176 218 219 212 222 217 209 215 216 226 230 222 195 194 194 192 191 155 142 124 82 64 44 52 128 118 130 151 165 170 165 152 178 183 177 189 192 178 177 179
103 90 100 112 96 124 89 138 167 170 128 119 107 74 357 31 105 101 76 41 273 72 349 76 185 210 98 150 217 237 135 234 125 172 232 217 171 261 205 185 211 206 238 205 222 149 140 210 210 216 230 227 223 220 209 215 222 226 230 205 184 194 188 146 139 137 131 108 273 232 63 95 188 208 177 182 167 182 201 196 185 194 161 145 161 150 135
78 66 53 47 81 107 168 184 160 141 119 82 72 88 51 42 113 80 276 183 71 83 257 150 212 165 157 189 249 308 149 179 161 201 191 243 148 268 188 133 254 211 253 223 252 151 222 221 212 220 232 213 222 221 212 210 217 222 225 207 178 186 162 162 165 165 177 190 196 191 178 183 194 205 202 195 204 214 188 159 172 169 153 140 137 141 140
60 66 99 79 73 205 197 145 141 127 88 92 11 105 130 208 114 210 176 69 1 274 181 193 199 180 183 183 187 249 229 122 146 223 204 294 49 168 244 159 273 198 221 218 224 155 197 212 210 222 230 215 224 212 214 212 218 222 219 201 180 175 171 174 191 195 192 202 203 193 193 193 187 179 181 190 184 185 194 193 179 154 149 147 143 149 160
47 94 75 120 190 175 133 121 48 47 78 55 47 14 105 14 288 232 105 172 176 236 169 170 124 125 210 159 165 208 289 75 150 125 131 189 242 112 180 203 248 145 235 208 261 156 159 216 220 223 221 202 213 209 208 210 216 222 215 199 187 177 179 186 192 195 186 172 127 164 190 191 179 181 181 180 179 187 189 179 169 165 151 151 157 159 138
184 158 162 122 117 123 56 32 60 75 27 70 119 170 171 174 62 20 150 150 200 183 287 141 171 178 203 176 195 181 250 167 151 124 153 239 270 132 232 262 13 120 196 224 136 73 184 217 218 225 189 201 211 204 204 207 217 216 213 192 196 184 181 184 188 200 197 191 185 179 180 179 179 175 172 173 181 176 159 155 155 157 160 147 128 135 142
89 77 72 79 45 26 85 61 326 115 125 114 91 153 76 88 206 151 225 233 295 97 241 61 220 92 338 49 10 153 182 177 133 212 110 208 274 53 165 221 167 215 230 3 81 207 204 210 219 221 190 202 209 205 207 205 214 208 189 154 180 190 186 185 189 187 188 183 179 173 169 167 164 159 153 148 133 119 118 146 157 149 146 144 145 142 142
67 47 43 339 69 295 96 188 176 64 21 115 142 176 115 73 293 71 120 217 220 199 201 144 207 146 207 204 162 191 23 341 102 88 360 303 76 186 187 234 211 239 54 34 109 172 216 214 208 203 208 206 209 207 206 212 203 119 122 173 163 176 179 163 115 122 138 73 87 99 104 119 120 97 116 146 159 156 147 135 139 139 139 135 139 143 145
87 36 70 40 67 238 94 266 38 123 179 212 156 161 139 161 200 171 183 227 137 196 189 175 154 168 186 214 43 314 137 199 199 119 222 140 65 262 166 239 229 46 125 227 263 294 353 270 264 249 245 232 226 221 214 196 168 184 180 154 177 179 171 174 179 163 150 153 150 138 131 135 124 123 123 128 126 143 148 151 154 144 145 139 135 139 152
95 147 113 112 198 303 138 165 72 42 294 133 188 185 151 194 156 195 230 67 172 194 152 187 180 175 182 229 156 194 145 129 121 209 179 93 162 226 210 42 66 81 277 147 214 220 213 224 224 220 216 217 222 220 158 157 121 98 124 182 201 185 185 172 164 160 155 143 149 145 140 138 139 137 132 124 124 127 127 132 140 140 137 136 148 151 154
91 62 92 92 83 263 58 149 221 207 170 183 200 184 171 176 184 147 107 323 172 212 191 244 160 183 166 199 118 338 20 147 160 229 90 84 190 242 23 112 234 187 208 226 210 220 257 253 235 228 225 228 220 184 187 179 175 184 199 158 126 170 171 159 158 155 155 138 132 134 137 137 131 126 124 117 113 117 123 124 127 134 138 144 141 135 139
122 173 96 114 199 150 158 226 131 51 352 126 254 335 262 164 120 213 351 37 313 263 163 134 118 103 17 289 83 181 189 252 170 260 154 198 44 38 299 204 258 242 194 199 227 193 219 228 220 225 229 236 221 201 190 189 193 194 192 176 170 164 170 168 162 157 151 153 148 139 134 134 137 139 136 131 124 123 128 128 128 123 122 124 129 134 137
104 129 161 183 176 155 202 337 121 176 221 348 336 32 78 134 205 185 288 256 79 140 315 112 173 98 205 169 138 194 223 229 151 212 77 27 147 201 178 211 190 227 259 181 216 209 212 219 223 246 288 297 245 209 230 238 232 211 201 191 185 178 164 161 157 147 148 145 146 142 142 144 139 131 127 125 124 129 131 126 124 124 131 136 140 142 145
80 26 33 78 84 357 310 83 85 248 328 360 356 231 360 117 253 272 225 100 206 140 169 230 276 134 216 119 157 205 232 165 190 268 108 198 201 216 102 192 230 192 228 224 234 236 226 216 113 254 271 267 263 207 194 152 143 163 118 97 111 143 158 148 144 150 147 146 142 144 141 139 141 144 143 140 133 128 124 123 126 130 134 139 140 144 149
1 76 124 325 180 206 136 171 184 210 244 226 200 217 181 201 177 163 6 129 154 102 102 183 178 130 163 170 171 166 242 170 105 193 160 197 174 113 191 212 227 211 224 215 208 224 349 330 293 269 256 230 212 158 144 144 134 126 113 117 121 112 111 135 138 136 135 134 137 136 140 141 137 128 116 118 125 120 109 96 92 119 134 135 136 143 147
91 128 216 47 93 92 80 98 47 93 191 242 159 238 118 192 126 280 274 81 149 162 196 173 106 140 133 195 209 194 38 37 211 123 106 274 166 154 208 200 215 213 218 226 272 352 327 285 268 267 242 227 191 134 129 124 123 123 130 132 131 133 131 122 134 132 135 136 140 137 126 123 122 123 128 126 122 116 125 134 136 118 115 112 131 138 139